When you browse on this site, cookies collect data to enhance your experience and personalize the content and advertising you see.
Visit our Privacy Policy to learn more. By continuing to use the site, you agree to this use of cookies and data.
  • En España
  • Lista de países
  • Para 7 días
  • Temperatura del agua
  • El tiempo en el mapa
  • Informadores
  • user-avatar
    Iniciar sesión

    Tiempo cada hora Uige

    Hoy, 28 Enero, Martes

    Tiempo Temperatura Precipitaciones Viento Presión Humedad
    00:00 +20°C° 0 mm 0 mps 691 mmHg 94%
    01:00 +20°C° 0 mm 0 mps 691 mmHg 95%
    02:00 +20°C° 0.3 mm 0 mps 690 mmHg 95%
    03:00 +20°C° 0.3 mm 0 mps 690 mmHg 94%
    04:00 +20°C° 0.3 mm 0 mps 690 mmHg 94%
    05:00 +20°C° 0.3 mm 0 mps 691 mmHg 94%
    06:00 +20°C° 0.3 mm 0 mps 691 mmHg 94%
    07:00 +20°C° 0.3 mm 0 mps 691 mmHg 94%
    08:00 +21°C° 0.1 mm 0 mps 692 mmHg 91%
    09:00 +22°C° 0.1 mm 0 mps 692 mmHg 88%
    10:00 +25°C° 0.1 mm 1 mps 692 mmHg 86%
    11:00 +26°C° 0.5 mm 1 mps 692 mmHg 84%
    12:00 +27°C° 0.5 mm 1 mps 691 mmHg 81%
    13:00 +27°C° 0.5 mm 1 mps 691 mmHg 79%
    14:00 +27°C° 0.3 mm 1 mps 690 mmHg 77%
    15:00 +28°C° 0.3 mm 1 mps 690 mmHg 74%
    16:00 +28°C° 0.3 mm 1 mps 689 mmHg 72%
    17:00 +26°C° 0.1 mm 1 mps 689 mmHg 79%
    18:00 +23°C° 0.1 mm 0 mps 689 mmHg 86%
    19:00 +21°C° 0.1 mm 0 mps 689 mmHg 92%
    20:00 +21°C° 0.3 mm 0 mps 690 mmHg 93%
    21:00 +21°C° 0.3 mm 0 mps 691 mmHg 94%
    22:00 +20°C° 0.3 mm 0 mps 691 mmHg 95%
    23:00 +20°C° 0.3 mm 0 mps 691 mmHg 95%

    Mañana, 29 Enero, Miércoles

    Tiempo Temperatura Precipitaciones Viento Presión Humedad
    00:00 +20°C° 0.3 mm 0 mps 691 mmHg 95%
    01:00 +20°C° 0.3 mm 0 mps 691 mmHg 96%
    02:00 +20°C° 0.6 mm 0 mps 691 mmHg 96%
    03:00 +20°C° 0.6 mm 0 mps 690 mmHg 96%
    04:00 +20°C° 0.6 mm 0 mps 690 mmHg 96%
    05:00 +20°C° 0 mm 0 mps 691 mmHg 96%
    06:00 +20°C° 0 mm 0 mps 691 mmHg 95%
    07:00 +21°C° 0 mm 0 mps 691 mmHg 95%
    08:00 +22°C° 1 mm 0 mps 692 mmHg 93%
    09:00 +23°C° 1 mm 0 mps 692 mmHg 91%
    10:00 +26°C° 1 mm 1 mps 692 mmHg 88%
    11:00 +26°C° 0.8 mm 1 mps 692 mmHg 87%
    12:00 +26°C° 0.8 mm 1 mps 691 mmHg 85%
    13:00 +27°C° 0.8 mm 1 mps 691 mmHg 84%
    14:00 +26°C° 0.8 mm 1 mps 690 mmHg 86%
    15:00 +26°C° 0.8 mm 1 mps 690 mmHg 88%
    16:00 +25°C° 0.8 mm 1 mps 690 mmHg 90%
    17:00 +25°C° 0.1 mm 1 mps 690 mmHg 91%
    18:00 +22°C° 0.1 mm 0 mps 690 mmHg 93%
    19:00 +21°C° 0.1 mm 0 mps 690 mmHg 94%
    20:00 +21°C° 1 mm 0 mps 691 mmHg 95%
    21:00 +20°C° 1 mm 0 mps 692 mmHg 96%
    22:00 +20°C° 1 mm 0 mps 692 mmHg 97%
    23:00 +20°C° 0.6 mm 0 mps 692 mmHg 97%

    Pasado mañana, 30 Enero, Jueves

    Tiempo Temperatura Precipitaciones Viento Presión Humedad
    00:00 +22°C° 0.6 mm 1 mps 692 mmHg 97%
    01:00 +22°C° 0.6 mm 1 mps 692 mmHg 98%
    02:00 +22°C° 0 mm 1 mps 691 mmHg 97%
    03:00 +20°C° 0 mm 0 mps 691 mmHg 97%
    04:00 +20°C° 0 mm 0 mps 691 mmHg 97%
    05:00 +20°C° 0 mm 0 mps 691 mmHg 97%
    06:00 +22°C° 0 mm 1 mps 692 mmHg 97%
    07:00 +22°C° 0 mm 1 mps 692 mmHg 97%
    08:00 +23°C° 0 mm 1 mps 692 mmHg 93%
    09:00 +24°C° 0 mm 1 mps 693 mmHg 89%
    10:00 +25°C° 0 mm 1 mps 693 mmHg 84%
    11:00 +26°C° 0.2 mm 2 mps 693 mmHg 81%
    12:00 +27°C° 0.2 mm 2 mps 693 mmHg 77%
    13:00 +27°C° 0.2 mm 2 mps 692 mmHg 74%
    14:00 +26°C° 0.5 mm 2 mps 692 mmHg 79%
    15:00 +26°C° 0.5 mm 2 mps 691 mmHg 85%
    16:00 +25°C° 0.5 mm 1 mps 690 mmHg 90%
    17:00 +24°C° 0.1 mm 1 mps 690 mmHg 91%
    18:00 +23°C° 0.1 mm 1 mps 691 mmHg 92%
    19:00 +23°C° 0.1 mm 1 mps 691 mmHg 94%
    20:00 +22°C° 0 mm 1 mps 691 mmHg 94%
    21:00 +22°C° 0 mm 1 mps 692 mmHg 95%
    22:00 +22°C° 0 mm 1 mps 692 mmHg 95%
    23:00 +21°C° 0 mm 1 mps 692 mmHg 96%

    31 Enero, Viernes

    Tiempo Temperatura Precipitaciones Viento Presión Humedad
    00:00 +21°C° 0 mm 1 mps 692 mmHg 97%
    01:00 +21°C° 0 mm 1 mps 691 mmHg 98%
    02:00 +21°C° 0 mm 1 mps 691 mmHg 98%
    03:00 +19°C° 0 mm 0 mps 691 mmHg 98%
    04:00 +19°C° 0 mm 0 mps 691 mmHg 98%
    05:00 +19°C° 0 mm 0 mps 691 mmHg 97%
    06:00 +20°C° 0 mm 0 mps 692 mmHg 96%
    07:00 +20°C° 0 mm 0 mps 692 mmHg 96%
    08:00 +22°C° 0 mm 0 mps 693 mmHg 88%
    09:00 +24°C° 0 mm 0 mps 693 mmHg 80%
    10:00 +28°C° 0 mm 1 mps 693 mmHg 72%
    11:00 +29°C° 0.6 mm 1 mps 693 mmHg 70%
    12:00 +29°C° 0.6 mm 1 mps 692 mmHg 68%
    13:00 +30°C° 0.6 mm 1 mps 692 mmHg 66%
    14:00 +29°C° 1.1 mm 1 mps 691 mmHg 73%
    15:00 +28°C° 1.1 mm 1 mps 690 mmHg 80%
    16:00 +27°C° 1.1 mm 1 mps 689 mmHg 87%
    17:00 +25°C° 0.6 mm 1 mps 690 mmHg 89%
    18:00 +22°C° 0.6 mm 0 mps 690 mmHg 92%
    19:00 +21°C° 0.6 mm 0 mps 690 mmHg 95%
    20:00 +20°C° 0 mm 0 mps 691 mmHg 95%
    21:00 +20°C° 0 mm 0 mps 691 mmHg 95%
    22:00 +19°C° 0 mm 0 mps 691 mmHg 95%
    23:00 +19°C° 0.1 mm 0 mps 691 mmHg 96%

    1 Febrero, Sábado

    Tiempo Temperatura Precipitaciones Viento Presión Humedad
    00:00 +21°C° 0.1 mm 1 mps 691 mmHg 96%
    01:00 +21°C° 0.1 mm 1 mps 691 mmHg 97%
    02:00 +21°C° 0 mm 1 mps 691 mmHg 97%
    03:00 +21°C° 0 mm 1 mps 690 mmHg 97%
    04:00 +19°C° 0 mm 0 mps 690 mmHg 97%
    05:00 +19°C° 0 mm 0 mps 691 mmHg 97%
    06:00 +20°C° 0 mm 0 mps 691 mmHg 97%
    07:00 +20°C° 0 mm 0 mps 691 mmHg 97%
    08:00 +23°C° 0.1 mm 1 mps 692 mmHg 91%
    09:00 +25°C° 0.1 mm 1 mps 692 mmHg 85%
    10:00 +27°C° 0.1 mm 1 mps 693 mmHg 79%
    11:00 +28°C° 0.1 mm 1 mps 692 mmHg 72%
    12:00 +29°C° 0.1 mm 1 mps 692 mmHg 65%
    13:00 +30°C° 0.1 mm 2 mps 692 mmHg 58%
    14:00 +29°C° 0.2 mm 2 mps 691 mmHg 63%
    15:00 +29°C° 0.2 mm 2 mps 690 mmHg 68%
    16:00 +28°C° 0.2 mm 2 mps 689 mmHg 73%
    17:00 +26°C° 0.2 mm 1 mps 689 mmHg 80%
    18:00 +25°C° 0.2 mm 1 mps 690 mmHg 87%
    19:00 +23°C° 0.2 mm 1 mps 690 mmHg 94%
    20:00 +21°C° 0.2 mm 0 mps 690 mmHg 95%
    21:00 +20°C° 0.2 mm 0 mps 691 mmHg 96%
    22:00 +20°C° 0.2 mm 0 mps 691 mmHg 97%
    23:00 +20°C° 0.1 mm 0 mps 691 mmHg 97%

    2 Febrero, Domingo

    Tiempo Temperatura Precipitaciones Viento Presión Humedad
    00:00 +19°C° 0.1 mm 0 mps 691 mmHg 98%
    01:00 +19°C° 0.1 mm 0 mps 691 mmHg 98%
    02:00 +21°C° 0 mm 1 mps 691 mmHg 98%
    03:00 +21°C° 0 mm 1 mps 690 mmHg 99%
    04:00 +21°C° 0 mm 1 mps 690 mmHg 99%
    05:00 +21°C° 0 mm 1 mps 691 mmHg 98%
    06:00 +22°C° 0 mm 1 mps 691 mmHg 98%
    07:00 +22°C° 0 mm 1 mps 691 mmHg 98%
    08:00 +23°C° 0 mm 1 mps 692 mmHg 93%
    09:00 +24°C° 0 mm 1 mps 692 mmHg 89%
    10:00 +25°C° 0 mm 1 mps 692 mmHg 84%
    11:00 +26°C° 0.1 mm 1 mps 692 mmHg 78%
    12:00 +27°C° 0.1 mm 1 mps 692 mmHg 72%
    13:00 +28°C° 0.1 mm 2 mps 691 mmHg 66%
    14:00 +28°C° 0.2 mm 2 mps 691 mmHg 66%
    15:00 +28°C° 0.2 mm 2 mps 690 mmHg 67%
    16:00 +28°C° 0.2 mm 2 mps 690 mmHg 68%
    17:00 +27°C° 0.2 mm 2 mps 690 mmHg 76%
    18:00 +25°C° 0.2 mm 1 mps 690 mmHg 85%
    19:00 +23°C° 0.2 mm 1 mps 690 mmHg 93%
    20:00 +20°C° 0 mm 0 mps 691 mmHg 95%
    21:00 +20°C° 0 mm 0 mps 691 mmHg 96%
    22:00 +20°C° 0 mm 0 mps 692 mmHg 97%
    23:00 +19°C° 0 mm 0 mps 691 mmHg 98%
    Mostrar más